Estación Meteorológica Peña el Pijo (Robertgarden) [ 07/11/20 22:39:48 CEST ]

Fecha Hora Presion(HPa) Temp (°C) Humedad % Rocio (°C) Viento ( m/s) Direccion Lluvia 1Hora(mm) Lluvia 24H(mm) LLuvia Total(mm)
2020-Apr-16 01:09:28 1008.800 - - - - W     39.88
2020-Apr-16 02:09:11 1008.800 - - - - W     39.88
2020-Apr-16 03:09:48 1008.700 - - - - W     39.88
2020-Apr-16 04:08:58 1008.600 - - - - W     39.88
2020-Apr-16 05:08:57 1008.400 - - - - W     39.88
2020-Apr-16 06:09:04 1008.000 - - - - W     39.88
2020-Apr-16 07:10:13 1008.200 - - - - W     39.88
2020-Apr-16 08:09:42 1008.300 - - - - W     39.88
2020-Apr-16 09:10:21 1008.600 - - - - W     39.88
2020-Apr-16 10:10:24 1008.300 - - - - W     39.88
2020-Apr-16 11:09:07 1007.700 - - - - W     39.88
2020-Apr-16 12:09:20 1007.500 - - - - W     39.88
2020-Apr-16 13:09:08 1007.200 - - - - W     39.88
2020-Apr-16 14:08:47 1006.800 - - - - W     39.88
2020-Apr-16 15:09:05 1006.700 - - - - W     39.88
2020-Apr-16 16:08:49 1006.000 - - - - W     39.88
2020-Apr-16 17:08:51 1005.600 - - - - W     39.88
2020-Apr-16 18:09:05 1005.600 - - - - W     39.88
2020-Apr-16 19:09:06 1005.500 - - - - W     39.88
2020-Apr-16 20:09:06 1005.800 - - - - W     39.88
2020-Apr-16 21:09:39 1006.300 - - - - W     39.88
2020-Apr-16 22:09:27 1007.400 - - - - W     39.88
2020-Apr-16 23:09:44 1007.700 - - - - W     39.88

Temperatura Máxima:    Temperatura Mínima:
Presión Máxima:1008.800 Hpa    Presión Mínima:1005.500 Hpa


Volver